Regional Weather Roundup
Issued by NWS Jackson, KY

Home | Current Version | Previous Version | Graphics & Text | Print | Product List | Glossary On
Versions: 1 2 3 4 5 6 7 8 9 10 11 12 13 14 15 16 17 18 19 20 21 22 23 24 25 26 27 28 29 30 31 32 33 34 35 36 37 38 39 40 41 42 43 44 45 46 47 48 49 50
000
ASUS43 KJKL 221219
RWRJKL

EAST KENTUCKY HOURLY WEATHER ROUNDUP
NATIONAL WEATHER SERVICE JACKSON KY
800 AM EDT FRI AUG 22 2014

NOTE: "FAIR" INDICATES FEW OR NO CLOUDS BELOW 12,000 FEET WITH
NO SIGNIFICANT WEATHER AND/OR OBSTRUCTIONS TO VISIBILITY.

* THESE REPORTS ARE NOT UNDER NWS QUALITY CONTROL AND MAY NOT
  REPORT WEATHER SUCH AS PRECIPITATION AND FOG.

KYZ079-080-083-085-087-088-110-112-115-119-120-221300
...EASTERN KENTUCKY...

CITY           SKY/WX    TMP DP  RH WIND       PRES   REMARKS
JACKSON        CLOUDY    73  70  90 CALM      30.10R
6HR MIN TEMP:  71; 6HR MAX TEMP:  73;

LONDON         MOSUNNY   71  68  90 CALM      30.11R
6HR MIN TEMP:  71; 6HR MAX TEMP:  75;

SOMERSET*      SUNNY     72  72 100 CALM      30.10R
MONTICELLO*    MOSUNNY   70  70 100 CALM      30.11R
6HR MIN TEMP:  68; 6HR MAX TEMP:  71;

WILLIAMSBURG*  SUNNY     70  70 100 CALM      30.11
MIDDLESBORO*   FOG       69  69 100 CALM      30.13R VSB 1/2
6HR MIN TEMP:  69; 6HR MAX TEMP:  70;

HARLAN APT*    CLOUDY    68  66  94 MISG      30.14R VSB 1
HAZARD APT*    MOSUNNY   73  72  94 SW3       30.10R
BLACK MTN*       N/A     66  66 100 NW2         N/A
PIKEVILLE APT* PTSUNNY   72  70  94 S3        30.10R
BIG SANDY*     CLOUDY    72  70  94 S3        30.08S
6HR MIN TEMP:  69; 6HR MAX TEMP:  72;

MOREHEAD APT*  CLOUDY    75  72  88 SW7       30.08R
ASHLAND*       MOSUNNY   72  68  88 CALM      30.02S
$$

KYZ035-036-041-042-044-050-067-078-099-221300
...CENTRAL KENTUCKY...

CITY           SKY/WX    TMP DP  RH WIND       PRES   REMARKS
MT STERLING*   PTSUNNY   73  72  94 SW5       30.07S
FLEMING/MASON* SUNNY     72  70  94 S5        30.05S
DANVILLE*      SUNNY     72  70  94 CALM      30.07S
RICHMOND*      SUNNY     73  70  88 S6        30.06R
LEXINGTON      MOSUNNY   76  71  85 S8        30.05R
6HR MIN TEMP:  74; 6HR MAX TEMP:  78;

FRANKFORT      PTSUNNY   74  71  91 SW5       30.02R
6HR MIN TEMP:  72; 6HR MAX TEMP:  76;

$$

KYZ091>093-OHZ055-061-077-WVZ005-015-034-035-042-221300
...SOUTHERN OHIO/WEST VIRGINIA...

CITY           SKY/WX    TMP DP  RH WIND       PRES   REMARKS
COVINGTON      CLOUDY    74  71  91 SW6       30.01R
COLUMBUS       CLOUDY    71  67  87 S3        30.01R
DAYTON         HVY RAIN  72  70  94 S6        30.03R FOG
WILMINGTON     CLOUDY    71  67  87 SW5       30.02R
HUNTINGTON     CLOUDY    70  70 100 SW6       30.03S
CHARLESTON     CLOUDY    71  71 100 CALM      30.05R
PINEVILLE*     CLOUDY    68  68 100 MISG      30.16S
BECKLEY        HVY RAIN  67  65  93 S8        30.14S VSB 3/4
BLUEFIELD      LGT RAIN  70  66  87 VRB3      30.18R
$$

VAZ002-007-008-TNZ017-027-036-066-071-221300
...SOUTHWEST VIRGINIA/EAST TENNESSEE...

CITY           SKY/WX    TMP DP  RH WIND       PRES   REMARKS
WISE*          CLOUDY    72  70  94 SW6       30.19R
JONESVILLE*      N/A     66  66 100 CALM      30.15S
ABINGDON*      MOSUNNY   71  71 100 CALM      30.16S FOG
BRISTOL        CLOUDY    70  68  93 CALM      30.14S FOG
KNOXVILLE      PTSUNNY   73  70  90 CALM      30.10R
OAK RIDGE      MOSUNNY   74  71  91 CALM      30.12R
CROSSVILLE     PTSUNNY   71  67  87 CALM      30.17R
NASHVILLE      CLOUDY    75  73  93 CALM      30.09R
$$

...KEY TO REMARKS...
VSB - VISIBILITY IN MILES
WCI - WIND CHILL INDEX
HX  - HEAT INDEX

$$



USA.gov is the U.S. government's official web portal to all federal, state and local government web resources and services.